COSMOS 249 DEB

基本信息
目录编号:
18551
目录名称:
COSMOS 249 DEB
国际标识:
1968-091DF
轨道中心:
EARTH
物体状态:
在轨
发射日期:
1968-10-20 UTC
轨道信息
数据来源: 国际轨道数据
星历时间: 2026-07-13T10:14:08+0800
半长轴: 7487.625km
偏心率: 0.06955
轨道倾角: 62.296°
近地点辐角: 196.582°
升交点赤经: 69.693°
平近点角: 319.519°
近地点: 588.723km
远地点: 1630.253km
周期: 107.467分钟
每日圈数: 13.399442
详细信息
发射场:
TTMTR
轨道高度:
LEO
数据来源:
AOE Integration Group
参考系:
TEME
时间系统:
UTC
历元类型:
SGP4
2D轨道图
3D轨道图
轨道高度分析图
轨道倾角分析图
轨道综合分析图
查看轨道综合分析图